Location: Slidell
(30.2789°N, 89.7378°W)
Time: 01:25:58
(UTC-05:00)

Daily predictions for brighter satellites

Satellite Brightness Start Highest point End
(mag) Time Altitude Azimuth Time Altitude Azimuth Time Altitude Azimuth
Cosmos 2360 Rocket 3.5 04:12:49 37° NE 04:12:49 37° NE 04:16:13 10° NNE
CENTAUR R/B 4.4 04:16:52 18° NNW 04:16:52 18° NNW 04:19:21 10° N
Cosmos 2263 Rocket 3.3 04:30:08 10° NNW 04:38:11 33° SE 04:41:11 10° SSE
ISS -0.4 04:40:53 11° NE 04:40:53 11° NE 04:41:44 10° NE
Cosmos 2322 4.0 04:42:22 60° N 04:42:22 60° N 04:47:02 10° NNE
Nadezhda 1 Rocket 3.9 04:45:25 57° SSE 04:46:43 79° E 04:52:47 10° N
Lacrosse 4 Rocket 4.4 04:45:03 10° NNE 04:47:42 16° ENE 04:50:22 10° E
DELTA 2 R/B (1) 3.7 04:49:49 65° N 04:49:49 65° N 04:54:58 10° ENE
Cosmos 1975 4.1 04:52:25 10° N 04:55:04 36° NNE 04:55:04 36° NNE
ADEOS II 1.9 04:51:49 10° NNE 04:57:05 89° NW 04:57:26 79° SSW
Cosmos 1900 4.4 04:58:11 47° NNW 04:59:38 81° ENE 05:04:45 10° SSE
PSLV R/B 4.0 04:55:41 10° NNE 04:59:09 57° NNE 04:59:09 57° NNE
SL-08 ROCKET BODY 4.4 04:55:22 10° NNW 05:00:27 58° WNW 05:00:27 58° WNW
Cosmos 1777 Rocket 4.2 04:56:25 10° N 05:01:43 70° ENE 05:06:57 10° SSE
OAO 2 Rocket 4.2 05:03:58 38° S 05:03:58 38° S 05:07:39 10° SE
Cosmos 2074 Rocket 3.8 04:58:48 10° N 05:05:01 70° W 05:11:10 10° S
CZ-4B DEB 4.1 05:05:16 10° N 05:10:47 68° WNW 05:11:59 52° SW
OAO 3 Copernicus 4.3 05:11:26 60° NW 05:12:00 65° NNW 05:17:00 10° ENE
IRAS Rocket 4.1 05:09:34 10° N 05:15:03 66° WNW 05:16:40 45° SW
CZ-4B R/B 3.2 05:11:26 10° N 05:16:58 59° WNW 05:18:19 46° WSW
Meteor 2-13 Rocket 4.3 05:12:52 10° N 05:19:00 73° W 05:25:05 10° S
Meteor PRIRODA 3.6 05:18:53 10° NNE 05:22:39 86° ESE 05:23:25 55° S
Cosmos 2237 4.4 05:22:40 44° WSW 05:23:50 50° WNW 05:29:24 10° N
Lacrosse 5 1.7 05:23:59 34° NW 05:26:05 66° SW 05:31:05 10° SSE
Okean O Rocket 3.1 05:22:56 10° NNW 05:25:11 23° NW 05:25:11 23° NW
Cosmos 2208 Rocket 4.1 05:25:00 38° SW 05:26:55 61° WNW 05:32:19 10° N
COSMOS 2428 2.7 05:25:18 36° SW 05:27:29 62° WNW 05:33:07 10° NNE
Meteor 1-19 Rocket 4.1 05:29:00 10° S 05:34:34 80° W 05:40:16 10° N
Okean-O 2.6 05:30:39 10° NNE 05:35:05 82° E 05:39:31 10° S
Cosmos 1238 Rocket 3.1 05:37:42 33° NNW 05:37:42 33° NNW 05:39:37 10° N
CZ-4B R/B 4.1 05:32:30 10° NNE 05:37:02 88° ESE 05:41:30 10° SSW
Cosmos 2184 Rocket 4.5 05:32:28 10° NNW 05:38:03 36° W 05:43:41 10° SSW
Cosmos 2219 Rocket 2.1 05:33:12 11° SSW 05:38:37 88° ESE 05:44:13 10° NNE
ERS-2 2.2 05:38:22 10° N 05:41:59 54° WNW 05:43:20 33° SW
GPS 2-04 Rocket1 3.8 05:43:22 21° SSW 05:45:19 34° SSE 05:48:45 10° E
GOES 2 Rocket 3.7 05:43:09 29° WSW 05:45:51 74° S 05:52:30 10° E
Thor Agena Rocket 4.0 05:46:56 10° SSE 05:51:56 63° ENE 05:56:55 10° N
Cosmos 1025 Rocket 3.0 05:48:01 10° S 05:52:21 87° E 05:56:46 10° N
NOSS 0 Rocket 4.0 05:48:01 10° SSW 05:54:12 83° ESE 06:00:23 10° NNE
Cosmos 1844 Rocket 3.1 05:48:53 10° NNW 05:54:26 64° ENE 05:59:55 10° SSE
Cosmos 1455 Rocket 4.4 05:51:25 10° NW 05:54:00 21° WNW 05:54:00 21° WNW
Cosmos 2360 Rocket 3.9 05:54:36 14° WNW 05:55:03 14° WNW 05:58:02 10° NNW
USA 215 3.3 05:49:47 10° SSE 05:56:11 56° SW 06:02:36 10° NW
Meteor 2-4 Rocket 3.6 05:51:27 10° SSW 05:57:07 71° W 06:02:39 10° N
Feng Yun 1-1 Rocket 4.4 05:54:30 10° N 06:00:15 60° WNW 06:05:50 10° SSW
Cosmos 1295 Rocket 4.5 05:54:04 10° N 06:00:19 88° W 06:06:27 10° S
Cosmos 962 Rocket 4.5 05:54:21 10° NNW 06:00:35 68° W 06:06:51 10° S
Tiangong 2 3.9 05:59:11 10° NNW 06:00:36 12° NNE 06:02:02 10° NE
Cosmos 405 Rocket 3.0 05:57:08 10° S 06:01:11 79° E 06:05:15 10° N
Cosmos 2237 Rocket 2.3 05:56:21 10° SSW 06:02:00 80° ESE 06:07:42 10° NNE
Cosmos 2278 Rocket 4.4 05:57:07 10° N 06:02:00 29° ENE 06:06:50 10° ESE
USA 116 3.9 06:00:55 10° S 06:04:38 52° W 06:08:53 10° NNW
USA 229 DEB 3.8 05:58:11 10° SW 06:04:53 60° WNW 06:11:43 10° NNE
USA 229 3.8 05:58:18 10° SW 06:05:00 60° WNW 06:11:49 10° NNE
PSLV R/B 3.4 06:03:28 20° WNW 06:05:35 55° SSW 06:08:53 10° SE
Cosmos 2154 Rocket 4.4 06:05:56 10° NNW 06:11:33 37° W 06:17:10 10° SSW
Meteor 1-31 Rocket 3.8 06:10:57 10° NNW 06:14:06 25° WNW 06:17:15 10° SW
Delta 142 4.3 06:09:20 15° W 06:14:26 57° SSW 06:19:10 10° ESE
Cosmos 2333 Rocket 2.4 06:10:23 10° SW 06:15:55 54° WNW 06:21:32 10° N
ISS -3.8 06:14:11 10° NW 06:17:28 66° SW 06:20:43 10° SE
NOSS 3-1 (A) 4.5 06:12:14 10° S 06:17:34 45° ESE 06:23:20 10° NE
Cosmos 1743 3.7 06:15:21 10° NW 06:18:31 25° W 06:21:40 10° SW
Cosmos 1666 3.0 06:15:07 10° NNW 06:18:49 45° W 06:22:31 10° SSW
Cosmos 468 Rocket 4.3 06:15:03 10° SW 06:19:57 45° WNW 06:24:55 10° N
Cosmos 1898 Rocket 3.7 06:15:43 10° NNW 06:20:55 75° ENE 06:26:03 10° SSE
Okean 1-7 Rocket 4.4 06:17:15 10° SW 06:21:16 31° W 06:25:17 10° NNW
ASTRO E2 3.3 06:18:22 13° W 06:21:41 41° SSW 06:25:28 10° SE
NOSS 3-1 (C) 3.6 06:16:12 10° SSW 06:21:47 73° ESE 06:27:53 10° NNE
EXPRESS MD2 3.3 06:17:26 10° SW 06:23:05 71° NW 06:26:03 10° NE
SKYMED 2 3.7 06:19:23 10° SSE 06:23:42 85° E 06:28:03 10° N
OTV 4 2.6 06:22:24 10° SSW 06:24:31 20° SSE 06:26:38 10° E
Lacrosse 4 Rocket 2.1 06:22:37 10° NW 06:26:25 33° WSW 06:30:18 10° S
Cosmos 2058 Rocket 4.3 06:22:53 10° N 06:27:14 49° E 06:31:31 10° SSE
ATLAS 5 CENTAUR R/B 4.0 06:22:41 10° NNW 06:28:25 39° NE 06:34:30 10° ESE
Hubble Space Telescope 2.2 06:29:07 10° SW 06:32:45 30° SSE 06:36:24 10° E
Ariane Rocket 3.3 06:29:11 10° NNE 06:34:14 75° ESE 06:39:16 10° S
SL-8 Rocket 4.1 06:31:32 10° NNW 06:37:33 55° W 06:43:31 10° SSW
